Regional Weather Roundup
Issued by NWS

Home | Current Version | Previous Version | Text Only | Print | Product List | Glossary On
Versions: 1 2 3 4 5 6 7 8 9 10 11 12 13 14 15 16 17 18 19 20 21 22 23 24 25 26 27 28 29 30 31 32 33 34 35 36 37 38 39 40 41 42 43 44 45 46 47 48 49 50
000
ASUS43 KTOP 011759
RWRKS

WEATHER ROUNDUP FOR KANSAS
NATIONAL WEATHER SERVICE GOODLAND KS
100 PM CDT WED JUL 01 2015

NOTE:  "FAIR" INDICATES FEW OR NO CLOUDS BELOW 12,000 FEET WITH NO
SIGNIFICANT WEATHER AND/OR OBSTRUCTIONS TO VISIBILITY.

KSZ001>006-013>018-027>032-041>047-011900-
NORTHWEST KANSAS

CITY           SKY/WX    TMP DP  RH WIND       PRES   REMARKS
GOODLAND       SUNNY     92  55  28 NE15G23   30.00S
6HR MIN TEMP:  70; 6HR MAX TEMP:  93;

HAYS           FAIR      93  61  33 N18G25    29.84S
HILL CITY      LGT RAIN  92  64  39 NE16      29.89R
6HR MIN TEMP:  75; 6HR MAX TEMP:  92; 6HR PCP: TRACE;

RUSSELL        FAIR      96  58  27 N15G24    29.80S HX  95
6HR MIN TEMP:  78; 6HR MAX TEMP:  96; 6HR PCP: TRACE;

$$

KSZ061>065-074>080-084>089-011900-
SOUTHWEST KANSAS

CITY           SKY/WX    TMP DP  RH WIND       PRES   REMARKS
DODGE CITY     FAIR      94  57  28 N13       29.87F
6HR MIN TEMP:  72; 6HR MAX TEMP:  94; 6HR PCP: TRACE;

ELKHART          N/A     94  55  26 N12         N/A
GARDEN CITY    FAIR      94  59  31 N13G21    29.90F
6HR MIN TEMP:  70; 6HR MAX TEMP:  94;

GREAT BEND     FAIR      88  59  37 N12       29.83R
LIBERAL        FAIR      93  61  33 NE8       29.93F
$$

KSZ066>073-081>083-090>101-011900-
SOUTHEAST KANSAS

CITY           SKY/WX    TMP DP  RH WIND       PRES   REMARKS
CHANUTE        FAIR      87  71  58 SW9       29.85
6HR MIN TEMP:  78; 6HR MAX TEMP:  87;

COFFEYVILLE    FAIR      92  73  53 S17G23    29.84F HX 100
6HR MIN TEMP:  76; 6HR MAX TEMP:  92;

HUTCHINSON     FAIR      94  60  32 SW10      29.80F
6HR MIN TEMP:  78; 6HR MAX TEMP:  94; 6HR PCP: TRACE;

MEDICINE LODGE   N/A     97  62  31 SW16G22   29.80F HX  98
PARSONS        FAIR      90  73  57 S10       29.86F HX  98
6HR MIN TEMP:  77; 6HR MAX TEMP:  92;

WICHITA INTL   LGT RAIN  94  62  34 W9        29.81S
6HR MIN TEMP:  74; 6HR MAX TEMP:  97; 6HR PCP: TRACE;

WICHITA JABRA  FAIR      91  63  39 SW12      29.81F
6HR MIN TEMP:  77; 6HR MAX TEMP:  94;

WINFIELD       FAIR      99  65  32 SW22G31   29.81F HX 102
6HR MIN TEMP:  76; 6HR MAX TEMP:  99;

$$

KSZ007>012-019>026-033>040-048>060-102>105-011900-
NORTHEAST KANSAS

CITY           SKY/WX    TMP DP  RH WIND       PRES   REMARKS
CONCORDIA      FAIR      89  66  46 NE10      29.80S
6HR MIN TEMP:  73; 6HR MAX TEMP:  90;

EMPORIA        FAIR      82  69  64 S10       29.80F
6HR MIN TEMP:  76; 6HR MAX TEMP:  83; 6HR PCP: TRACE;

LAWRENCE       FAIR      85  73  67 S15       29.82F
6HR MIN TEMP:  69; 6HR MAX TEMP:  85; 6HR PCP:  0.01;

MANHATTAN      FAIR      91  64  40 S6        29.78S
6HR MIN TEMP:  73; 6HR MAX TEMP:  91;

OLATHE IND     FAIR      80  73  79 S17G23    29.85F
6HR MIN TEMP:  68; 6HR MAX TEMP:  81; 6HR PCP:  0.02;

OLATHE EXE     FAIR      78  72  81 S16G22    29.84F
6HR MIN TEMP:  67; 6HR MAX TEMP:  78; 6HR PCP: TRACE;

SALINA         FAIR      90  62  39 W5        29.79R
6HR MIN TEMP:  79; 6HR MAX TEMP:  90; 6HR PCP: TRACE;

TOPEKA BILLARD FAIR      86  72  62 SE13      29.81F
6HR MIN TEMP:  70; 6HR MAX TEMP:  86; 6HR PCP:  0.05;

TOPEKA FORBES  FAIR      88  71  57 S16       29.82R
6HR MIN TEMP:  71; 6HR MAX TEMP:  88; 6HR PCP: TRACE;

$$


USA.gov is the U.S. government's official web portal to all federal, state and local government web resources and services.